Theta_e
297 297 297 297 298 298 299 300 300 301 303 304 304 304 303 303 303 295 289 290 288 284 285 282 283 285 287 286 279 285 285 284 283 279 274 275 276 277 275 275 275 279 281 280 281 279 276 285 284 281 285 287 285 284
296 296 296 296 296 297 297 298 299 299 300 301 301 302 303 303 303 300 288 291 291 286 284 287 286 288 287 286 286 285 284 283 286 280 278 276 275 272 273 272 280 274 280 276 280 279 283 283 285 284 285 285 285 283
296 296 296 296 296 296 296 297 297 298 298 299 299 300 302 302 302 297 287 287 286 281 281 277 282 286 289 288 289 280 280 286 284 285 276 272 269 276 268 270 274 278 281 278 279 281 282 283 283 283 285 285 285 285
295 296 296 296 296 295 295 296 296 296 297 297 298 299 299 299 300 295 288 290 289 285 280 276 287 285 287 287 286 288 287 289 288 281 278 274 269 279 274 277 276 278 279 277 279 281 281 282 282 283 283 281 280 280
296 296 296 296 295 295 295 295 295 295 295 295 296 298 297 297 295 289 289 289 287 279 270 270 282 284 282 282 283 286 285 285 285 282 279 278 276 276 274 276 279 280 281 278 278 282 281 283 282 280 280 279 277 276
295 295 296 296 295 294 295 295 295 294 294 294 295 297 297 296 296 291 281 287 285 282 271 269 277 271 268 273 281 285 284 284 285 283 283 282 283 281 272 272 276 282 283 285 283 285 281 283 277 275 276 274 274 273
295 295 295 296 296 295 294 295 295 295 294 293 293 296 297 297 292 282 278 284 287 284 278 269 276 279 267 279 282 284 283 282 282 282 281 281 283 282 277 271 278 275 276 277 272 275 276 273 274 269 270 268 268 266
295 295 296 296 296 296 294 295 295 295 294 292 294 295 296 294 290 283 282 288 284 281 279 264 271 277 271 279 278 281 281 282 281 279 278 278 279 280 275 279 276 274 272 270 269 269 270 269 268 269 269 268 266 268
295 296 296 296 297 295 294 295 295 294 292 293 295 295 287 278 272 273 286 283 278 275 266 260 268 267 270 267 275 279 280 276 270 268 270 272 269 273 276 274 275 272 272 270 266 266 266 266 266 266 266 265 264 266
295 295 296 296 296 295 294 295 294 291 289 292 285 273 266 269 284 283 271 266 267 263 263 265 261 265 268 265 271 273 275 273 272 265 265 262 266 271 274 270 268 269 269 267 266 268 262 262 262 263 263 263 264 264
295 295 295 296 296 295 294 295 294 288 284 275 269 268 273 282 273 263 263 263 260 263 257 258 259 265 266 266 263 268 271 268 262 264 263 257 262 268 264 261 259 262 263 261 260 260 259 260 259 258 259 260 260 260
295 295 295 295 296 296 294 294 293 280 275 275 274 274 271 266 264 265 259 257 258 263 258 261 262 263 262 265 262 259 258 260 260 254 257 258 268 266 260 260 258 255 256 257 256 258 258 260 257 256 257 257 256 256
295 295 295 295 296 296 294 294 290 285 282 273 269 269 269 265 264 264 262 263 261 256 256 257 261 263 262 265 257 258 258 260 254 254 260 265 265 262 260 254 254 250 250 251 253 251 251 253 250 251 254 254 252 253
295 295 295 295 295 296 293 290 285 280 270 268 267 268 270 264 265 265 266 266 262 259 256 258 256 259 257 261 258 258 255 254 253 254 262 264 263 261 255 250 253 255 254 253 253 250 251 250 250 248 247 248 251 253
295 295 295 295 295 295 289 284 281 268 266 266 265 265 263 263 256 252 249 256 257 257 260 259 258 264 255 257 258 255 256 255 258 263 264 264 260 255 253 250 255 252 251 252 248 249 252 250 248 249 250 249 247 249
295 294 290 295 295 291 287 276 267 263 261 264 262 265 256 259 256 251 249 253 253 259 256 258 253 256 257 256 256 257 257 260 266 264 264 257 257 255 255 255 257 254 252 252 250 249 250 249 250 252 247 249 250 251
294 286 293 293 289 286 282 267 265 262 264 261 263 252 260 259 263 258 257 257 257 259 259 255 258 263 257 253 255 257 260 266 265 263 258 258 260 261 260 257 253 252 251 249 248 247 248 246 245 247 252 253 252 253
287 286 294 291 280 273 264 263 264 261 264 265 265 261 254 254 258 256 255 255 259 258 257 260 260 257 259 257 258 262 264 262 259 262 261 260 261 260 258 261 256 257 257 252 250 248 247 246 248 252 250 250 251 251
289 288 294 291 283 271 270 265 264 264 265 261 261 259 253 252 253 255 252 251 251 252 257 253 253 257 261 261 262 260 258 259 263 263 262 261 259 260 259 257 255 255 256 255 252 252 252 252 252 251 251 250 251 252
295 294 294 292 286 273 271 268 260 261 262 262 259 259 259 256 255 253 250 250 252 251 254 256 260 263 263 262 263 262 260 258 259 260 263 263 258 256 256 257 256 254 254 252 250 251 250 251 250 252 252 253 251 255
292 289 290 282 276 277 274 268 261 261 257 259 257 259 257 255 255 253 252 253 253 255 258 261 260 258 258 257 255 256 258 258 260 262 262 262 258 257 257 255 256 253 253 250 252 254 253 253 254 252 252 254 256 257
282 284 277 279 277 272 270 264 263 258 258 255 257 256 251 251 252 250 252 251 255 259 260 258 257 257 258 259 259 255 256 255 252 255 256 256 257 257 256 254 253 252 252 252 252 253 253 254 253 252 252 255 256 256
283 280 274 275 275 271 267 259 261 258 260 256 255 257 254 253 252 254 251 255 257 259 257 256 256 254 256 252 251 252 252 253 253 252 253 253 254 254 253 251 252 252 250 251 250 252 253 254 253 255 257 256 255 254
284 277 274 273 274 267 260 256 259 256 255 256 258 258 255 254 252 251 254 256 260 253 252 254 252 255 254 253 253 252 252 250 251 251 251 254 254 253 249 250 247 248 251 251 252 252 252 252 254 252 252 254 254 253
276 274 274 270 264 259 258 255 254 253 256 256 258 258 252 252 256 255 256 259 254 253 253 249 250 256 258 254 252 252 250 252 254 255 253 252 251 251 251 248 248 249 248 250 250 250 249 248 248 248 249 250 251 252
273 273 270 269 261 261 259 256 256 256 257 257 259 252 254 258 258 262 260 258 255 255 255 257 257 253 252 255 256 255 254 251 254 257 254 252 253 253 252 254 252 252 247 247 248 248 247 247 247 247 247 247 250 249
273 274 269 262 261 259 255 254 257 259 258 259 255 254 258 261 262 265 261 254 256 254 254 255 256 257 257 254 252 251 251 253 255 256 253 251 250 250 253 253 251 251 246 246 245 246 246 246 246 246 245 244 244 244
275 267 264 260 258 258 258 256 258 259 260 261 260 258 261 265 268 266 261 257 253 253 252 251 253 255 257 257 257 254 253 253 253 252 252 251 248 249 247 246 248 255 246 245 246 246 245 245 245 244 244 244 244 242
267 263 264 258 257 259 261 261 261 263 265 264 265 264 265 267 262 261 257 256 255 258 257 256 256 257 257 257 256 256 255 255 257 256 255 255 253 253 247 246 245 244 242 244 252 251 246 245 244 243 243 243 244 240
261 268 263 263 261 262 263 263 264 265 264 266 267 264 263 260 258 259 259 258 258 259 259 259 259 259 259 259 258 256 253 253 253 256 256 255 255 250 249 246 245 243 242 243 248 249 256 248 248 245 244 244 243 243
264 264 264 265 264 258 258 260 261 262 262 261 262 266 262 258 257 256 255 255 256 257 258 259 259 259 259 259 258 257 256 252 250 250 249 249 249 248 247 247 246 242 241 243 245 245 245 244 242 242 243 244 243 244
264 265 265 260 257 256 258 261 261 260 260 262 259 261 260 261 259 256 253 254 257 257 256 257 258 257 254 254 254 253 253 253 252 251 251 250 249 247 247 246 242 241 244 246 246 245 244 244 244 244 244 244 243 243
261 261 259 257 256 257 257 261 260 258 259 259 257 258 258 260 258 255 253 253 252 252 253 253 252 252 252 252 252 251 251 250 251 257 255 254 251 250 246 242 242 244 247 247 246 245 245 245 245 244 244 244 243 244
Wind_Speed
16 16 16 16 17 17 16 16 14 13 12 9 7 7 6 6 3 4 2 2 4 3 2 3 1 2 3 3 4 2 2 2 3 4 2 3 3 6 1 3 4 8 6 8 5 7 17 5 4 10 5 5 3 2
15 15 16 15 16 16 15 15 14 11 9 11 10 9 8 8 5 5 2 0 1 2 2 3 1 1 2 3 2 3 1 1 2 3 1 3 2 1 3 5 2 3 8 7 10 9 1 4 6 3 3 4 5 3
15 15 15 15 15 15 15 14 14 12 10 10 12 10 6 6 7 5 3 1 3 2 2 3 4 1 2 2 1 2 2 2 2 1 3 1 2 3 4 7 2 4 3 3 2 5 8 10 6 5 6 8 9 5
12 14 15 15 15 15 16 14 14 14 13 12 9 10 9 9 8 5 3 1 1 1 2 4 2 3 2 1 1 1 0 1 2 2 2 3 2 3 3 5 5 6 5 6 11 14 8 11 8 9 5 3 6 4
11 13 14 15 16 14 16 15 15 15 14 13 11 7 4 6 9 7 3 2 1 5 4 3 2 0 3 2 1 2 0 1 1 1 1 4 2 2 3 2 11 7 11 7 16 7 7 14 7 3 5 4 2 3
10 11 12 13 14 15 16 16 15 15 14 13 11 8 6 3 4 2 3 2 2 2 5 2 2 2 5 2 3 5 3 2 2 3 2 3 2 2 3 5 7 11 10 15 19 16 8 13 2 3 3 3 3 4
10 10 11 12 12 14 15 16 16 16 16 15 9 4 3 3 2 2 4 2 1 2 3 4 3 2 1 2 2 2 1 0 0 1 2 2 2 4 3 7 7 5 5 6 1 3 6 3 4 1 2 2 1 3
10 12 12 13 12 11 13 16 16 17 17 11 4 1 11 12 9 2 3 3 3 4 2 1 4 1 6 1 1 1 1 1 1 2 2 1 2 2 8 15 4 1 2 2 1 1 1 1 2 3 1 1 3 5
12 12 13 13 14 10 12 16 16 17 14 6 4 8 5 5 2 4 0 7 3 4 3 3 4 5 4 1 1 1 1 1 1 1 1 0 2 9 12 6 5 4 4 3 2 2 2 2 4 4 2 3 3 5
12 12 13 13 12 10 12 16 16 16 3 6 6 5 4 3 5 3 8 5 6 5 5 3 1 1 2 2 1 2 1 2 3 4 2 2 8 9 13 6 4 5 6 6 1 5 2 2 2 3 2 3 4 4
11 11 11 13 12 8 11 14 15 11 8 4 2 2 3 6 4 5 2 4 3 4 1 2 3 3 3 4 4 1 1 1 0 4 4 4 7 7 2 2 1 0 2 3 2 2 2 3 3 3 5 4 3 3
13 12 11 11 12 9 8 12 11 5 2 3 3 2 2 5 4 5 2 3 2 6 2 3 2 2 0 2 4 2 4 3 6 0 4 6 8 6 3 4 3 2 2 3 1 4 2 1 1 2 4 5 4 3
14 14 13 12 12 11 5 7 7 2 6 3 4 3 3 2 3 6 4 5 2 4 4 2 1 1 2 2 4 4 3 6 2 3 7 8 5 5 6 3 3 2 0 2 2 1 2 3 2 2 3 4 4 3
14 13 13 13 12 9 5 4 5 4 5 2 3 4 5 3 6 7 6 5 3 3 4 3 2 3 1 4 2 4 3 3 3 1 9 5 6 5 3 2 4 5 7 6 6 4 5 4 4 3 4 3 3 4
14 14 14 13 12 7 6 7 6 3 4 2 4 6 7 2 2 2 1 2 2 2 3 3 4 2 2 4 1 3 5 5 8 8 6 5 5 3 3 4 7 5 5 6 4 4 6 6 5 5 5 4 4 3
12 12 9 16 10 10 10 7 4 3 4 4 2 2 1 3 3 2 1 2 3 3 2 4 3 4 5 5 3 9 6 9 7 6 5 3 3 4 5 6 7 4 5 6 5 5 5 5 5 5 2 4 5 5
12 4 8 15 14 11 7 4 4 4 4 2 5 1 3 3 3 3 4 4 2 4 4 4 5 12 2 2 5 7 9 7 5 5 3 5 5 4 4 5 5 5 5 5 4 4 3 0 2 1 5 3 4 4
6 6 15 17 10 6 3 4 4 3 6 3 2 2 1 0 2 2 3 2 4 4 4 6 4 3 8 8 7 7 6 4 4 4 4 4 4 3 3 7 4 5 5 4 4 3 3 3 4 5 3 4 4 3
7 8 17 21 8 5 3 2 3 4 5 1 2 2 2 1 0 1 2 2 1 1 4 3 2 6 7 6 6 4 4 4 3 3 3 4 3 4 4 3 2 4 5 5 5 4 5 7 5 4 4 3 4 2
18 17 19 22 10 4 1 2 1 3 4 1 2 2 1 1 2 2 1 0 2 2 1 5 10 7 6 5 5 4 4 3 3 2 4 2 1 2 4 3 3 3 3 2 2 3 1 2 3 4 3 3 2 5
12 6 16 7 2 1 2 4 2 3 3 3 2 3 2 1 2 3 3 2 2 6 7 9 6 4 4 2 1 2 2 4 5 5 4 3 1 1 1 1 1 1 2 1 2 3 3 5 3 3 3 3 4 5
5 15 5 2 3 3 3 1 3 3 3 1 2 2 3 2 3 3 3 1 7 7 7 4 4 2 1 4 4 4 2 2 1 1 1 2 1 1 1 2 3 2 2 3 3 4 4 4 2 2 3 3 3 2
14 7 4 3 4 6 3 1 4 4 4 4 2 2 3 2 2 2 4 6 7 6 4 4 3 2 3 2 2 3 4 5 3 3 2 3 3 3 3 2 4 4 3 4 3 2 3 3 3 2 1 1 1 1
12 8 8 8 11 5 3 3 1 3 3 3 5 4 4 3 4 2 7 6 6 2 3 5 3 0 2 2 2 3 3 3 2 2 3 3 1 3 1 1 1 2 3 2 1 0 0 2 1 0 1 1 2 2
9 9 8 9 2 6 7 5 4 3 5 5 4 4 4 4 4 5 6 6 3 3 3 2 2 3 4 2 2 3 2 3 3 3 1 3 3 1 2 2 1 1 1 2 0 1 2 1 1 0 0 1 3 3
11 10 16 14 7 10 11 11 11 10 6 6 6 3 3 4 4 9 6 5 4 4 4 6 6 3 3 4 3 1 3 3 2 2 2 3 3 4 3 2 1 3 1 1 3 2 1 1 1 1 1 2 3 2
13 13 6 2 6 5 3 1 3 6 8 9 7 8 6 7 9 7 2 3 3 3 2 2 3 3 3 3 2 1 1 2 2 2 3 2 2 1 2 3 3 3 1 2 2 3 3 2 1 1 0 2 1 1
7 10 12 8 2 3 7 5 8 11 7 7 10 9 13 13 7 2 2 1 3 3 2 2 2 2 2 2 4 5 3 3 4 4 3 3 2 2 3 3 2 4 1 1 2 3 2 3 2 1 2 1 2 2
5 6 9 7 4 4 8 9 10 5 7 9 9 6 7 2 2 2 1 1 2 3 3 2 2 2 4 4 3 2 4 4 4 3 1 2 2 2 2 2 2 2 2 2 2 4 5 3 3 3 3 2 2 2
6 7 6 7 9 9 6 3 3 4 2 2 3 3 3 3 2 3 3 2 2 2 2 1 3 3 3 4 4 2 1 2 2 3 4 4 4 3 3 2 2 1 2 3 2 3 6 5 4 4 4 3 3 2
7 3 5 4 4 2 2 2 2 3 3 3 3 3 4 4 2 2 3 3 1 1 1 2 2 3 3 3 3 3 2 3 4 3 2 2 3 4 4 3 3 3 2 3 3 3 3 3 2 2 3 3 4 3
1 2 5 5 3 1 1 1 2 3 2 2 2 2 2 2 3 1 3 3 1 1 2 1 1 2 1 0 1 1 2 3 5 4 7 3 3 3 3 3 3 3 3 3 3 3 3 3 1 0 1 3 4 4
3 3 4 5 4 3 1 3 3 3 3 3 3 3 3 3 3 2 1 2 2 2 1 1 1 1 1 1 1 2 3 3 6 7 6 6 6 6 4 3 3 3 4 3 3 3 3 2 2 2 3 3 5 5
Wind_Direction
16 17 17 18 17 17 20 21 20 17 17 24 10 10 3 1 38 122 165 168 147 199 254 176 250 181 162 179 158 346 134 194 175 202 166 221 148 188 219 274 186 179 179 214 230 239 252 114 139 181 250 298 284 247
12 11 12 15 14 14 16 15 13 12 7 6 356 344 341 338 285 155 138 188 102 150 179 116 172 201 319 5 152 195 286 185 239 89 238 44 33 19 179 256 237 264 189 188 182 219 303 220 224 203 130 213 268 238
2 5 6 7 10 10 10 10 5 3 357 355 1 355 348 10 38 115 133 134 75 102 352 83 179 152 35 34 338 161 308 340 74 124 145 164 202 113 192 240 221 263 176 201 70 251 249 263 261 249 213 229 259 249
4 359 358 2 4 3 4 3 1 356 354 352 354 11 17 0 9 50 73 38 65 126 188 273 125 168 160 314 190 256 50 215 36 41 102 123 140 150 231 237 204 193 142 202 249 269 283 260 248 257 269 244 273 276
4 0 359 358 360 355 356 358 355 353 348 344 341 333 17 41 75 77 80 41 55 129 192 257 61 317 33 326 204 133 137 263 252 317 148 224 214 76 250 341 246 194 228 218 252 245 240 276 250 190 226 240 246 313
2 1 358 357 1 353 347 353 349 347 341 335 329 311 322 151 351 25 351 53 3 52 82 20 209 26 340 338 161 164 158 200 226 190 199 234 265 149 251 249 252 214 225 235 257 266 243 272 0 42 331 1 344 318
343 346 346 347 346 353 344 343 346 343 340 332 314 288 309 120 83 101 186 260 56 12 40 340 295 34 54 354 45 104 65 140 236 249 249 254 220 190 227 250 205 213 216 241 223 82 288 177 246 191 176 245 270 276
325 328 333 332 339 345 346 336 341 340 337 332 306 158 94 89 95 21 341 51 78 84 21 115 276 328 8 102 119 8 136 171 221 237 320 218 301 220 254 244 311 296 5 357 232 304 331 236 288 283 223 289 284 280
312 317 322 328 338 353 344 341 342 341 336 319 200 108 52 40 56 240 115 64 49 123 154 103 157 236 351 317 288 4 31 240 288 188 246 239 252 228 234 246 251 237 195 209 183 206 229 233 278 292 273 280 269 294
298 308 315 323 334 341 335 346 350 351 40 55 51 64 347 261 258 48 8 27 13 336 32 188 337 193 69 349 84 39 162 260 237 253 351 150 256 277 272 247 209 203 182 150 40 309 22 337 18 337 287 283 273 275
287 297 307 311 317 319 329 337 356 358 37 40 70 179 237 320 58 35 16 84 320 348 28 219 168 150 316 116 187 14 157 50 327 262 139 283 272 251 263 269 229 204 181 200 143 123 165 171 216 281 307 292 279 293
279 283 292 299 311 311 320 334 11 40 147 198 155 96 31 45 36 80 251 333 99 229 282 139 207 155 264 89 99 320 149 47 241 304 72 269 252 259 255 248 248 211 147 164 161 179 186 197 244 266 278 289 276 269
270 276 283 291 297 315 300 351 24 42 96 38 48 69 77 309 41 146 234 286 285 185 204 170 166 155 28 55 65 81 105 225 41 52 232 235 258 269 235 218 269 266 124 175 165 149 195 234 286 188 281 275 286 256
261 264 272 279 286 289 283 70 69 110 79 101 127 268 170 236 241 189 184 190 214 113 143 127 86 138 201 72 125 107 242 62 24 325 237 247 244 265 253 201 134 228 209 215 213 213 228 229 256 260 236 256 238 240
257 261 263 266 269 280 119 94 89 76 109 180 89 239 220 245 35 20 22 12 255 131 98 60 37 86 345 82 50 90 16 263 208 230 230 238 241 246 236 216 218 224 213 221 204 203 228 219 219 255 238 240 233 245
244 270 256 249 234 137 124 90 54 72 41 115 192 294 335 41 306 341 168 240 200 138 80 61 115 66 256 146 109 218 142 225 240 218 231 237 242 230 230 210 222 194 201 220 203 198 228 214 218 245 272 242 231 227
217 227 178 136 122 112 111 74 63 51 193 205 251 184 148 171 194 187 161 201 169 102 188 123 140 214 99 55 252 190 211 222 218 249 230 216 233 248 226 232 184 186 200 213 209 185 223 178 111 355 290 266 227 233
203 195 176 152 130 101 34 57 86 101 248 215 218 211 194 43 138 202 205 199 136 165 129 208 126 170 206 190 242 233 233 254 230 233 236 240 241 258 231 239 193 181 198 207 200 177 160 176 225 244 263 280 304 266
177 170 173 163 159 111 130 283 112 227 234 167 132 132 117 183 214 48 47 348 61 114 107 60 146 214 229 213 222 246 245 207 228 253 253 255 214 210 217 208 166 159 181 184 189 201 198 207 213 214 217 190 226 237
200 187 178 168 158 111 251 240 46 148 231 194 83 171 137 130 110 104 101 89 102 97 102 210 222 216 198 222 195 200 202 177 121 343 294 306 278 171 202 185 197 176 173 181 224 190 209 290 251 232 224 216 232 253
174 184 141 118 86 108 192 163 263 200 140 172 170 166 138 157 190 178 188 159 87 215 235 228 234 239 236 240 194 157 188 161 197 185 220 282 279 197 268 291 124 118 177 198 216 254 218 234 245 225 206 226 233 259
130 127 107 164 129 186 265 161 159 145 119 161 160 146 148 179 199 220 136 148 232 234 211 206 231 204 236 249 235 201 207 138 118 135 43 101 341 352 293 217 119 235 230 231 212 236 245 243 244 232 212 250 237 245
109 105 96 147 168 203 217 36 150 180 179 193 120 164 233 203 166 98 244 225 249 230 203 208 221 202 229 305 315 270 199 175 213 222 232 218 213 208 198 205 179 178 223 269 197 214 254 290 274 253 278 289 280 290
118 143 157 197 197 192 99 183 155 120 101 173 172 222 202 155 146 172 254 248 238 205 189 209 155 112 345 340 271 252 242 168 170 244 217 149 178 290 205 261 206 220 203 190 173 137 300 273 281 50 228 248 262 262
130 193 177 206 134 124 175 164 176 171 215 171 179 202 183 162 187 222 238 259 246 234 212 157 149 188 185 244 278 262 209 159 168 170 230 170 147 43 27 24 48 206 204 110 113 143 270 321 32 91 264 245 270 285
185 185 188 197 175 175 178 164 192 183 156 168 199 122 161 161 191 242 224 220 224 197 183 183 173 167 239 208 168 194 221 177 133 106 234 183 177 151 172 158 161 294 332 140 132 134 81 50 86 71 320 311 322 319
183 196 173 70 127 116 103 82 123 144 175 183 163 163 159 195 222 240 240 222 191 218 177 167 154 172 184 154 133 119 97 120 130 124 98 101 83 66 127 152 197 231 142 111 115 131 142 143 125 160 41 360 347 308
184 159 173 164 163 169 143 169 167 186 178 155 138 182 184 196 209 165 167 169 148 121 103 82 78 114 110 106 118 122 91 91 93 98 105 84 67 68 74 73 46 86 78 141 147 106 113 147 149 115 81 47 304 304
159 150 115 142 133 189 202 182 198 208 142 168 171 167 193 155 60 103 111 123 122 118 106 111 67 77 75 70 76 84 133 158 134 112 147 253 325 254 141 100 79 62 70 77 262 159 165 141 142 137 142 178 259 278
172 168 111 144 164 202 199 200 166 109 75 117 81 95 94 86 68 14 50 56 90 112 93 82 131 170 159 168 160 158 191 208 199 148 166 208 215 143 144 132 116 85 76 105 98 49 56 45 32 37 35 19 3 349
128 125 107 129 157 73 60 86 59 67 47 60 351 81 95 126 92 48 47 9 328 322 158 180 188 193 174 173 161 151 219 210 195 172 164 133 126 134 141 149 135 124 124 125 112 100 95 60 58 64 40 3 339 352
44 117 125 118 112 13 310 94 98 85 74 83 56 69 117 125 105 83 11 336 321 95 62 0 189 158 18 358 251 266 306 133 151 155 156 154 142 140 132 120 112 123 121 109 101 99 102 122 131 92 303 308 311 313
92 73 85 106 110 159 195 111 83 89 63 78 53 32 36 39 102 50 105 36 32 4 357 33 25 346 337 318 137 112 104 116 135 139 138 130 133 134 122 120 137 139 127 118 114 111 124 155 213 246 262 280 296 299